This is the latest recevied weather packets stored in our database for station/object N0HOT. If no packets are shown the sender has not sent any weather packets the latest 10 day(s).
| Time | Temp. | Humidity | Pressure | Rain* | Wind** | Luminosity | Snow |
|---|---|---|---|---|---|---|---|
| 1787959679 | 23.89° C | 61% | 1018.1 hPa | 0 mm | - | 57 W/m² | - |
| 1787959374 | 23.89° C | 59% | 1017.8 hPa | 0 mm | - | 58 W/m² | - |
| 1787959069 | 23.89° C | 59% | 1017.8 hPa | 0 mm | - | 58 W/m² | - |
| 1787958764 | 23.89° C | 57% | 1017.8 hPa | 0 mm | - | 57 W/m² | - |
| 1787958460 | 23.89° C | 58% | 1017.8 hPa | 0 mm | - | 62 W/m² | - |
| 1787958156 | 24.44° C | 57% | 1018.1 hPa | 0 mm | - | 68 W/m² | - |
| 1787957855 | 24.44° C | 56% | 1018.1 hPa | 0 mm | - | 67 W/m² | - |
| 1787957548 | 24.44° C | 56% | 1017.8 hPa | 0 mm | - | 67 W/m² | - |
| 1787957244 | 24.44° C | 55% | 1017.8 hPa | 0 mm | - | 66 W/m² | - |
| 1787956939 | 24.44° C | 56% | 1017.8 hPa | 0 mm | - | 70 W/m² | - |
| 1787956639 | 24.44° C | 55% | 1017.8 hPa | 0 mm | - | 75 W/m² | - |
| 1787956333 | 24.44° C | 56% | 1017.8 hPa | 0 mm | - | 81 W/m² | - |
| 1787956036 | 24.44° C | 55% | 1017.8 hPa | 0 mm | - | 87 W/m² | - |
| 1787955724 | 25° C | 56% | 1017.8 hPa | 0 mm | - | 90 W/m² | - |
| 1787955420 | 25° C | 54% | 1017.8 hPa | 0 mm | - | 101 W/m² | - |
| 1787955118 | 25° C | 54% | 1017.8 hPa | 0 mm | - | 99 W/m² | - |
| 1787954814 | 25.56° C | 55% | 1017.8 hPa | 0 mm | - | 96 W/m² | - |
| 1787954510 | 25.56° C | 54% | 1017.8 hPa | 0 mm | - | 97 W/m² | - |
| 1787954210 | 26.11° C | 54% | 1018.5 hPa | 0 mm | - | 95 W/m² | - |
| 1787953910 | 26.11° C | 54% | 1018.1 hPa | 0 mm | - | 93 W/m² | - |
| 1787953609 | 26.67° C | 51% | 1018.1 hPa | 0 mm | - | 86 W/m² | - |
| 1787953304 | 26.67° C | 50% | 1018.5 hPa | 0 mm | - | 95 W/m² | - |
| 1787953002 | 27.22° C | 49% | 1018.5 hPa | 0 mm | - | 122 W/m² | - |
| 1787952702 | 27.22° C | 50% | 1018.1 hPa | 0 mm | - | 145 W/m² | - |
| 1787952396 | 27.78° C | 49% | 1018.5 hPa | 0 mm | - | 174 W/m² | - |
* Rain latest hour (hover to see other rain measurements)
** Current wind speed in m/s (hover to see current wind gust speed)